This is the latest recevied weather packets stored in our database for station/object KE8DDT-7. If no packets are shown the sender has not sent any weather packets the latest 10 day(s).
| Time | Temp. | Humidity | Pressure | Rain* | Wind** | Luminosity | Snow |
|---|---|---|---|---|---|---|---|
| 1777642442 | 5.56° C | 80% | 1005.4 hPa | 0 mm | - | 139 W/m² | - |
| 1777642141 | 5.56° C | 81% | 1005.4 hPa | 0 mm | - | 162 W/m² | - |
| 1777641842 | 5.56° C | 81% | 1005.4 hPa | 0 mm | - | 188 W/m² | - |
| 1777641542 | 5° C | 82% | 1005.4 hPa | 0 mm | - | 221 W/m² | - |
| 1777641242 | 5° C | 82% | 1005.4 hPa | 0 mm | - | 202 W/m² | - |
| 1777640942 | 5° C | 82% | 1005.4 hPa | 0 mm | - | 185 W/m² | - |
| 1777640642 | 5° C | 82% | 1005.4 hPa | 0 mm | - | 142 W/m² | - |
| 1777640342 | 5° C | 83% | 1005.3 hPa | 0 mm | - | 135 W/m² | - |
| 1777640042 | 5° C | 83% | 1005.4 hPa | 0 mm | - | 113 W/m² | - |
| 1777639742 | 4.44° C | 83% | 1005.3 hPa | 0 mm | - | 98 W/m² | - |
| 1777639442 | 4.44° C | 83% | 1005.5 hPa | 0 mm | - | 76 W/m² | - |
| 1777639141 | 4.44° C | 83% | 1005.3 hPa | 0 mm | - | 76 W/m² | - |
| 1777638842 | 4.44° C | 84% | 1005.3 hPa | 0 mm | - | 63 W/m² | - |
| 1777638542 | 4.44° C | 84% | 1005.3 hPa | 0 mm | - | 63 W/m² | - |
| 1777638242 | 4.44° C | 84% | 1005.3 hPa | 0 mm | - | 54 W/m² | - |
| 1777637942 | 4.44° C | 84% | 1005.3 hPa | 0 mm | - | 51 W/m² | - |
| 1777637642 | 4.44° C | 84% | 1005.2 hPa | 0 mm | - | 44 W/m² | - |
| 1777637341 | 4.44° C | 84% | 1005.2 hPa | 0 mm | - | 47 W/m² | - |
| 1777637041 | 4.44° C | 84% | 1005.1 hPa | 0 mm | - | 49 W/m² | - |
| 1777636741 | 4.44° C | 84% | 1005.1 hPa | 0 mm | - | 53 W/m² | - |
| 1777636441 | 4.44° C | 84% | 1005.1 hPa | 0 mm | - | 46 W/m² | - |
| 1777636141 | 4.44° C | 84% | 1005.2 hPa | 0 mm | - | 40 W/m² | - |
| 1777635841 | 4.44° C | 84% | 1005.1 hPa | 0 mm | - | 44 W/m² | - |
| 1777635542 | 4.44° C | 84% | 1005.1 hPa | 0 mm | - | 37 W/m² | - |
| 1777635241 | 4.44° C | 84% | 1005 hPa | 0 mm | - | 30 W/m² | - |
* Rain latest hour (hover to see other rain measurements)
** Current wind speed in m/s (hover to see current wind gust speed)